TimeCST,TemperatureF,Dew PointF,Humidity,Sea Level PressureIn,VisibilityMPH,Wind Direction,Wind SpeedMPH,Gust SpeedMPH,PrecipitationIn,Events,Conditions,WindDirDegrees,DateUTC
12:45 AM,53.6,51.8,94,30.12,10.0,NNW,8.1,-,0.05,Rain,Light Rain,330,2013-01-02 06:45:00
12:53 AM,54.0,52.0,93,30.12,10.0,NW,10.4,-,0.05,Rain,Light Rain,320,2013-01-02 06:53:00
1:24 AM,53.6,51.8,94,30.13,10.0,NW,12.7,-,0.01,Rain,Light Rain,320,2013-01-02 07:24:00
1:34 AM,53.6,51.8,94,30.13,8.0,NNW,12.7,19.6,0.03,Rain,Rain,330,2013-01-02 07:34:00
1:53 AM,53.1,51.1,93,30.13,6.0,NNW,11.5,-,0.06,Rain,Rain,340,2013-01-02 07:53:00
2:01 AM,53.6,51.8,94,30.14,6.0,NNW,10.4,-,0.02,Rain,Heavy Rain,330,2013-01-02 08:01:00
2:53 AM,52.0,51.1,97,30.12,10.0,North,10.4,-,0.08,Rain,Light Rain,350,2013-01-02 08:53:00
3:53 AM,51.1,48.9,92,30.14,10.0,NNW,13.8,21.9,0.00,Rain,Light Rain,330,2013-01-02 09:53:00
4:53 AM,51.1,48.0,89,30.15,10.0,NNW,12.7,-,0.00,Rain,Light Rain,340,2013-01-02 10:53:00
5:04 AM,50.0,48.2,94,30.17,10.0,NNW,11.5,20.7,0.00,Rain,Light Rain,330,2013-01-02 11:04:00
5:27 AM,50.0,48.2,94,30.18,9.0,NNW,16.1,20.7,0.01,Rain,Light Rain,330,2013-01-02 11:27:00
5:53 AM,50.0,48.0,93,30.17,10.0,NNW,13.8,20.7,0.01,,Overcast,340,2013-01-02 11:53:00
6:53 AM,48.9,46.9,93,30.19,10.0,NNW,13.8,20.7,0.01,Rain,Light Rain,340,2013-01-02 12:53:00
7:53 AM,48.9,46.9,93,30.21,8.0,NNW,10.4,-,0.02,Rain,Light Rain,340,2013-01-02 13:53:00
8:53 AM,48.0,46.9,96,30.25,5.0,NNW,9.2,-,0.12,Rain,Light Rain,340,2013-01-02 14:53:00
9:53 AM,48.0,46.9,96,30.26,8.0,NNW,11.5,20.7,0.01,,Overcast,330,2013-01-02 15:53:00
10:53 AM,48.9,46.0,90,30.24,9.0,North,13.8,19.6,N/A,,Overcast,350,2013-01-02 16:53:00
11:53 AM,48.0,46.0,93,30.23,8.0,NNW,13.8,20.7,N/A,,Overcast,340,2013-01-02 17:53:00
12:11 PM,48.2,46.4,93,30.22,8.0,North,10.4,21.9,N/A,,Overcast,350,2013-01-02 18:11:00
12:49 PM,48.2,46.4,93,30.19,9.0,NNW,13.8,19.6,0.00,,Overcast,340,2013-01-02 18:49:00
12:53 PM,48.0,46.0,93,30.19,9.0,NNW,10.4,19.6,0.00,,Overcast,340,2013-01-02 18:53:00
1:53 PM,46.9,44.1,90,30.19,8.0,NNW,10.4,18.4,N/A,,Overcast,340,2013-01-02 19:53:00
2:27 PM,46.4,44.6,93,30.18,9.0,NNW,11.5,19.6,N/A,,Overcast,330,2013-01-02 20:27:00
2:53 PM,46.9,44.1,90,30.18,9.0,North,10.4,-,0.00,,Overcast,350,2013-01-02 20:53:00
3:01 PM,46.4,44.6,93,30.18,9.0,NNW,10.4,-,N/A,,Overcast,340,2013-01-02 21:01:00
3:53 PM,46.0,44.1,93,30.19,9.0,NNW,9.2,-,N/A,,Overcast,340,2013-01-02 21:53:00
4:10 PM,46.4,42.8,87,30.21,9.0,NW,10.4,-,0.00,Rain,Light Rain,320,2013-01-02 22:10:00
4:46 PM,44.6,42.8,93,30.21,8.0,NW,11.5,19.6,0.00,Rain,Light Rain,310,2013-01-02 22:46:00
4:53 PM,45.0,43.0,93,30.21,8.0,NW,13.8,-,0.00,Rain,Light Rain,310,2013-01-02 22:53:00
5:07 PM,44.6,42.8,93,30.21,8.0,NW,15.0,-,0.00,Rain,Light Rain,310,2013-01-02 23:07:00
5:29 PM,44.6,42.8,93,30.21,8.0,NW,13.8,-,0.00,Rain,Light Rain,320,2013-01-02 23:29:00
5:53 PM,44.1,43.0,96,30.22,8.0,NW,12.7,19.6,0.01,Rain,Light Rain,310,2013-01-02 23:53:00
6:46 PM,42.8,42.8,100,30.23,7.0,NW,12.7,18.4,0.05,Rain,Rain,320,2013-01-03 00:46:00
6:53 PM,43.0,42.1,97,30.23,7.0,NW,11.5,19.6,0.05,Rain,Rain,320,2013-01-03 00:53:00
7:05 PM,42.8,42.8,100,30.24,8.0,NW,10.4,-,0.02,Rain,Light Rain,320,2013-01-03 01:05:00
7:53 PM,43.0,42.1,97,30.24,8.0,NNW,11.5,-,0.06,Rain,Light Rain,340,2013-01-03 01:53:00
8:12 PM,42.8,42.8,100,30.24,9.0,NNW,10.4,-,0.00,Rain,Light Rain,340,2013-01-03 02:12:00
8:19 PM,42.8,42.8,100,30.25,9.0,NNW,11.5,-,0.01,Rain,Light Rain,340,2013-01-03 02:19:00
8:51 PM,42.8,42.8,100,30.24,7.0,NNW,8.1,-,0.02,Rain,Light Rain,340,2013-01-03 02:51:00
8:53 PM,43.0,42.1,97,30.24,7.0,North,10.4,-,0.02,Rain,Light Rain,350,2013-01-03 02:53:00
9:11 PM,42.8,42.8,100,30.26,6.0,NW,11.5,-,0.01,Rain,Rain,320,2013-01-03 03:11:00
9:33 PM,42.8,42.8,100,30.26,8.0,NW,12.7,19.6,0.02,Rain,Light Rain,320,2013-01-03 03:33:00
9:53 PM,43.0,42.1,97,30.27,8.0,NW,12.7,-,0.02,Rain,Light Rain,320,2013-01-03 03:53:00
10:53 PM,43.0,42.1,97,30.26,8.0,NNW,11.5,-,0.03,Rain,Light Rain,340,2013-01-03 04:53:00
11:53 PM,43.0,42.1,97,30.26,7.0,NNW,10.4,18.4,0.02,Rain,Light Rain,330,2013-01-03 05:53:00